Simultaneous Nadir Overpasses (SNOs) Predictions

Prediction of SNOs between AQUA and GOES-15 Satellite Orbit:

Table of predicted SNOs for the next 14.0 days since TLE Epoch: 1/13/2017
Index Date Time (AQUA) AQUA Lat,Lon GOES-15 Lat,Lon Distance(km) Time Diff (sec)
1 01/14/2017 10:31:37 -0.26,-134.10 -0.07,-134.91 92.27 80
2 01/16/2017 10:19:27 -0.88,-131.15 -0.07,-134.99 436.47 80
3 01/16/2017 22:40:51 -0.25,-136.33 0.07,-134.97 155.99 80
4 01/18/2017 22:28:42 0.43,-133.39 0.07,-135.04 187.93 80
5 01/19/2017 10:49:57 0.67,-138.55 -0.07,-135.10 392.65 80
6 01/21/2017 10:37:48 0.05,-135.59 -0.07,-135.17 49.37 80
7 01/23/2017 10:25:39 -0.64,-132.65 -0.06,-135.23 293.48 80
8 01/23/2017 22:47:02 -0.48,-137.84 0.07,-135.21 299.12 80
9 01/25/2017 22:34:52 0.16,-134.89 0.06,-135.26 42.82 80




NCC Satellite Simultaneous Nadir Overpasses (SNOs) Prediction Service
